Charlottetown, Prince Edward Island

11:17 AM ADT on August 16, 2017 (GMT -0300)
Charlottetown

Weather History for CYYG - January, 2013

Change the Weather History Date:

Sunday, January 6, 2013

  Actual Average Record
Temperature  
Mean Temperature 10 °F -  
Max Temperature 18 °F 26 °F 53 °F (2007)
Min Temperature 3 °F 10 °F -2 °F (2015)
Degree Days  
Heating Degree Days 54    
Moisture  
Dew Point 9 °F    
Average Humidity 83    
Maximum Humidity 93    
Minimum Humidity 58    
Precipitation  
Precipitation 0.08 in 0.14 in - ()
Sea Level Pressure  
Sea Level Pressure 30.05 in    
Wind  
Wind Speed 6 mph ()    
Max Wind Speed 13 mph    
Max Gust Speed 21 mph    
Visibility 9.8 miles    
Events Snow    
Averages and records for this station are not official NWS values.
T = Trace of Precipitation, MM = Missing Value Source: Averaged Metar Reports

Daily Weather History Graph

Daily Weather History Graph

Search for Another Location

Airport or City:

Trip Planner

Search our weather history database for the weather conditions in past years. The results will help you decide how hot, cold, wet, or windy it might be!

Date:

Astronomy

Jan. 06, 2013 Rise Set
Actual Time 7:55 AM AST 4:42 PM AST
Civil Twilight 7:20 AM AST 5:16 PM AST
Nautical Twilight 6:42 AM AST 5:54 PM AST
Astronomical Twilight 6:06 AM AST 6:30 PM AST
Moon 1:56 AM AST (1/6) 12:13 PM AST (1/6)
Length of Visible Light 9h 55m
Length of Day
8h 47m
Waning Crescent, 34% of the Moon is Illuminated
Jan 6
Waning Crescent
Jan 11
New
Jan 18
First Quarter
Jan 27
Full
Feb 3
Last Quarter

Hourly Weather History & Observations

Time (AST) Temp. Windchill Dew Point Humidity Pressure Visibility Wind Dir Wind Speed Gust Speed Precip Events Conditions
12:00 AM 8.6 °F -7.0 °F -0.4 °F 67% 30.14 in 15.0 mi WNW 12.7 mph 20.7 mph N/A Snow Low Drifting Snow
1:00 AM 8.6 °F -5.5 °F -0.4 °F 67% 30.16 in 15.0 mi West 10.4 mph - N/A Snow Low Drifting Snow
2:00 AM 7 °F - -1 °F 58% 30.18 in 15 mi West 8.1 mph - - Snow Low Drifting Snow
2:00 AM 6.8 °F -5.9 °F -0.4 °F 72% 30.18 in 15.0 mi West 8.1 mph - N/A Snow Low Drifting Snow
3:00 AM 6.8 °F -4.8 °F -0.4 °F 72% 30.19 in 15.0 mi SW 6.9 mph - N/A   Partly Cloudy
4:00 AM 6.8 °F -4.8 °F -0.4 °F 72% 30.20 in 15.0 mi WSW 6.9 mph - N/A   Partly Cloudy
5:00 AM 5.0 °F -6.9 °F 1.4 °F 85% 30.16 in 15.0 mi WSW 6.9 mph - N/A   Partly Cloudy
6:00 AM 3.2 °F -6.2 °F -2.2 °F 78% 30.16 in 15.0 mi West 4.6 mph - N/A   Partly Cloudy
7:00 AM 5.0 °F -5.6 °F -0.4 °F 78% 30.14 in 15.0 mi WSW 5.8 mph - N/A   Partly Cloudy
8:00 AM 5 °F - 0 °F 72% 30.15 in 15 mi SSW 4.6 mph - -   Scattered Clouds
8:00 AM 5.0 °F -4.1 °F -0.4 °F 78% 30.15 in 15.0 mi SSW 4.6 mph - N/A   Mostly Cloudy
9:00 AM 8.6 °F -3.7 °F 1.4 °F 73% 30.13 in 15.0 mi SSW 8.1 mph - N/A   Mostly Cloudy
10:00 AM 10.4 °F -4.1 °F 3.2 °F 73% 30.14 in 15.0 mi SW 11.5 mph 18.4 mph N/A   Mostly Cloudy
12:00 PM 14.0 °F 2.9 °F 6.8 °F 73% 30.08 in 15.0 mi SW 8.1 mph - N/A   Overcast
12:40 PM 15.8 °F 3.4 °F 8.6 °F 73% 30.05 in 15.0 mi SW 10.4 mph - N/A Snow Light Snow
1:00 PM 15.8 °F 2.7 °F 10.4 °F 79% 30.04 in 3.0 mi SW 11.5 mph - N/A Snow Light Snow
2:00 PM 16 °F - 12 °F 78% 30.02 in 2 mi SW 5.8 mph - - Snow Light Snow
2:00 PM 15.8 °F 6.1 °F 12.2 °F 86% 30.02 in 2.0 mi SW 6.9 mph - N/A Snow Light Snow
2:39 PM 15.8 °F 6.1 °F 14.0 °F 93% 30.01 in 15.0 mi SSW 6.9 mph - N/A Snow Light Snow
2:51 PM 15.8 °F 7.2 °F 14.0 °F 93% 30.01 in 15.0 mi SSW 5.8 mph - N/A   Mostly Cloudy
3:00 PM 15.8 °F 6.1 °F 14.0 °F 93% 30.00 in 15.0 mi SSW 6.9 mph - N/A   Mostly Cloudy
3:44 PM 17.6 °F 8.2 °F 14.0 °F 86% 29.99 in 10.0 mi South 6.9 mph - N/A Snow Light Snow
4:00 PM 17.6 °F 9.3 °F 14.0 °F 86% 29.99 in 15.0 mi SSW 5.8 mph - N/A Snow Light Snow
5:00 PM 17.6 °F 10.7 °F 14.0 °F 86% 29.97 in 15.0 mi South 4.6 mph - N/A Snow Light Snow
6:00 PM 17.6 °F - 14.0 °F 86% 29.97 in 15.0 mi Calm Calm - N/A Snow Light Snow
6:24 PM 17.6 °F - 15.8 °F 93% 29.97 in 2.0 mi Calm Calm - N/A Snow Light Snow
7:00 PM 17.6 °F - 15.8 °F 93% 29.97 in 3.0 mi Calm Calm - N/A Snow Light Snow
7:31 PM 17.6 °F 12.3 °F 15.8 °F 93% 29.96 in 3.0 mi NNW 3.5 mph - N/A Snow Light Snow
7:40 PM 17.6 °F - 15.8 °F 93% 29.96 in 1.5 mi North 2.3 mph - N/A Snow Light Snow
8:00 PM 18 °F - 16 °F 88% 29.97 in 1 mi NNW 4.6 mph - - Snow Light Snow
8:00 PM 17.6 °F 9.3 °F 15.8 °F 93% 29.96 in 1.5 mi NW 5.8 mph - N/A Snow Light Snow
9:00 PM 17.6 °F 12.3 °F 15.8 °F 93% 29.95 in 2.0 mi NNW 3.5 mph - N/A Snow Light Snow
9:29 PM 17.6 °F 9.3 °F 15.8 °F 93% 29.95 in 2.2 mi NW 5.8 mph - N/A Snow Light Snow
10:00 PM 17.6 °F 10.7 °F 15.8 °F 93% 29.95 in 1.5 mi NW 4.6 mph - N/A Snow Light Snow
11:00 PM 17.6 °F 12.3 °F 15.8 °F 93% 29.95 in 1.2 mi NW 3.5 mph - N/A Snow Light Snow
11:11 PM 17.6 °F 10.7 °F 15.8 °F 93% 29.95 in 2.5 mi NNW 4.6 mph - N/A Snow Light Snow